Location: Sweet Grass
(48.9965°N, 111.9649°W)
Time: 08:39:05
(UTC+00:00)

DIWATA 2B (PO-101) - Pass Details

Date: 04 April 2023
Orbit: 581 x 594 km, 98.0° (Epoch: 03 June)

Event Time Altitude Azimuth Distance (km) Brightness Sun altitude
Exits shadow 10:12:53 27° 325° (NW) 1,140 ? -25.0°
Drops below altitude 10° 10:14:55 10° 337° (NNW) 1,912 ? -24.7°
Sets 10:17:08 0° 343° (NNW) 2,818 ? -24.5°
